Location: Butte
(46.0040°N, 112.5340°W)
Time: 14:03:44
(UTC-06:00)

Daily predictions for brighter satellites

Satellite Brightness Start Highest point End
(mag) Time Altitude Azimuth Time Altitude Azimuth Time Altitude Azimuth
Resurs 01 Rocket 2.9 19:56:27 10° ESE 19:59:51 22° ENE 20:03:16 10° NNE
Cosmos 2263 4.2 19:54:38 10° NNW 20:00:17 83° ENE 20:05:56 10° SSE
Cosmos 2298 Rocket 4.2 19:58:08 10° NNW 20:03:24 55° ENE 20:08:37 10° SE
Cosmos 1943 3.2 20:00:48 10° SSW 20:06:28 80° ESE 20:12:13 10° NNE
CZ-2D R/B 4.3 20:03:47 10° SE 20:06:58 26° ENE 20:10:10 10° N
Cosmos 1378 3.7 20:04:50 10° N 20:08:25 38° ENE 20:11:57 10° SE
SJ-6B 3.0 20:06:38 10° SSE 20:10:33 51° ENE 20:14:25 10° N
Cosmos 1937 Rocket 3.6 20:06:29 10° NNW 20:11:47 62° ENE 20:17:00 10° SSE
Cosmos 332 Rocket 3.8 20:07:33 10° SSW 20:12:25 73° ESE 20:17:17 10° NNE
Cosmos 468 Rocket 4.1 20:07:46 10° S 20:12:51 58° ESE 20:18:01 10° NNE
Cosmos 2292 Rocket 3.6 20:10:16 10° SSW 20:13:32 54° W 20:16:29 10° N
Cosmos 841 Rocket 4.3 20:10:42 10° SSE 20:14:57 27° E 20:19:13 10° NE
ATLAS 2AS CENTAUR R/B 4.5 20:12:08 10° NW 20:18:37 25° NNE 20:24:55 10° ENE
Cosmos 371 Rocket 3.3 20:13:55 10° S 20:18:45 70° ESE 20:23:38 10° NNE
Meteor 1-24 Rocket 4.4 20:13:24 10° N 20:19:00 39° ENE 20:24:28 10° SE
BREEZE M DEB (TANK) 2.9 20:12:39 10° WSW 20:21:36 85° NNW 20:24:28 11° ENE
HJ-1C 3.4 20:18:24 10° SSE 20:21:42 59° ENE 20:25:02 10° N
USA 229 DEB 4.0 20:17:38 10° NW 20:24:49 81° SW 20:32:08 10° SSE
USA 229 4.0 20:17:45 10° NW 20:24:55 81° SW 20:32:13 10° SSE
Cosmos 2058 Rocket 3.2 20:22:09 10° SSE 20:26:20 48° E 20:30:33 10° NNE
Cosmos 1953 Rocket 3.5 20:22:41 10° N 20:27:04 86° E 20:31:23 10° S
BREEZE-M DEB 4.4 20:16:58 10° WNW 20:28:07 56° SW 20:31:29 10° SE
Cosmos 2084 4.3 20:25:03 10° S 20:28:21 24° ESE 20:31:16 11° ENE
NOSS 3-1 (A) 4.3 20:21:56 10° NW 20:29:11 55° NE 20:36:22 14° ESE
Cosmos 1606 Rocket 3.5 20:25:01 10° S 20:29:22 87° E 20:33:44 10° N
Thor Agena Rocket 3.7 20:24:33 10° NNE 20:29:51 83° WNW 20:35:04 10° SSW
Cosmos 2228 3.2 20:26:33 10° SSE 20:30:46 49° E 20:34:59 10° NNE
Cosmos 1763 Rocket 3.5 20:32:42 10° S 20:37:39 55° ESE 20:42:42 10° NNE
NOSS 3-1 (C) 4.1 20:32:43 10° NW 20:40:11 75° NE 20:47:50 13° SE
Meteor 2-5 Rocket 3.8 20:38:57 10° N 20:44:54 89° WSW 20:50:41 10° S
Cosmos 540 Rocket 4.3 20:42:49 10° SSE 20:46:58 26° E 20:51:08 10° NE
GEOS 3 Rocket 4.4 20:42:31 10° ENE 20:47:15 31° ESE 20:51:57 10° S
H-2A R/B 3.6 20:45:44 10° S 20:49:20 49° W 20:53:00 10° NNW
Cosmos 1943 Rocket 3.1 20:44:59 10° NW 20:50:20 49° WSW 20:55:42 10° S
MOS 1-B Rocket 4.0 20:46:51 10° SSE 20:53:03 61° ENE 20:58:40 10° N
OPS 8737 4.3 20:52:27 10° SSW 20:56:05 77° SE 20:59:17 11° NE
Cosmos 1939 Rocket 3.4 20:55:24 29° ESE 20:56:34 36° ENE 21:00:11 10° N
Meteor 1-22 Rocket 4.2 20:51:41 10° S 20:57:19 58° E 21:02:45 10° NNE
Cosmos 1766 3.4 20:54:11 10° S 20:58:00 49° E 21:01:48 10° NNE
Spot 2 Rocket 3.4 20:53:04 10° SSE 20:58:02 70° ENE 21:03:04 10° N
USA 267 4.5 20:56:06 10° ENE 21:01:49 34° N 21:07:33 10° WNW
Cosmos 1707 4.3 21:02:34 10° NNW 21:06:14 38° W 21:09:53 10° SSW
Cosmos 1356 4.2 21:04:16 10° N 21:07:18 35° ENE 21:07:18 35° ENE
Cosmos 304 Rocket 3.6 21:07:01 10° SSW 21:11:47 75° ESE 21:16:36 10° NNE
COSMOS 2406 3.4 21:07:52 10° S 21:13:19 48° ESE 21:18:49 10° NE
Cosmos 1814 Rocket 4.4 21:08:13 10° SSW 21:13:21 64° WNW 21:18:29 10° NNE
Cosmos 2154 Rocket 4.1 21:09:14 10° SSE 21:15:12 51° E 21:21:13 10° NNE
Cosmos 1125 Rocket 3.5 21:11:38 10° NNW 21:16:54 63° ENE 21:19:07 34° SE
Cosmos 2341 Rocket 4.3 21:19:03 30° SE 21:21:16 41° E 21:27:00 10° NNE
Cosmos 1356 Rocket 4.2 21:17:14 10° NNW 21:21:26 54° W 21:25:32 11° S
Resurs 1-3 4.0 21:17:59 13° S 21:21:53 64° WSW 21:26:15 10° NNW
H-2A R/B 3.7 21:22:55 17° NE 21:22:55 17° NE 21:25:45 10° NNE
Cosmos 2074 Rocket 4.1 21:16:25 10° SSW 21:22:37 78° W 21:28:51 10° N
Helios 1A 3.5 21:24:21 39° ENE 21:24:21 39° ENE 21:28:08 10° N
CZ-4B DEB 4.5 21:26:42 66° NE 21:26:42 66° NE 21:30:04 10° N
USA 186 2.7 21:28:41 35° W 21:28:41 35° W 21:30:53 10° NNW
Envisat 3.2 21:25:55 15° S 21:30:04 69° WSW 21:35:10 10° NNW
ERS-1 Rocket 3.6 21:31:23 36° ENE 21:31:28 36° ENE 21:36:01 10° N
SJ-11-01 4.2 21:30:35 40° SSE 21:32:16 84° ENE 21:37:01 10° NNW
Cosmos 1656 Rocket 4.4 21:27:22 10° NW 21:32:49 51° WSW 21:37:00 17° S
Resurs 01 Rocket 2.8 21:31:53 10° S 21:36:05 42° W 21:40:19 10° NNW
Cosmos 1805 3.1 21:37:41 81° NE 21:37:41 81° NE 21:41:28 10° N
ARGOS 3.9 21:38:44 35° ENE 21:38:46 35° ENE 21:43:38 10° N
Cosmos 1674 3.5 21:35:38 10° N 21:38:17 40° NNE 21:38:17 40° NNE
Cosmos 372 Rocket 3.9 21:34:39 10° NNW 21:39:56 86° ENE 21:41:23 50° SSE
GP-B 3.5 21:39:47 10° N 21:44:12 64° W 21:46:46 24° SSW
SPOT 5 4.4 21:45:46 20° NE 21:45:46 20° NE 21:47:48 10° N
Cosmos 1953 3.9 21:48:27 26° NNE 21:48:27 26° NNE 21:50:20 10° NNE
Nadezhda 3 Rocket 4.0 21:40:24 10° N 21:46:47 86° W 21:50:11 29° S
MetOp-A 4.4 21:48:30 49° ENE 21:48:34 49° ENE 21:53:43 10° N
ATLAS CENTAUR R/B 4.2 21:40:38 10° NW 21:52:14 39° WSW 21:55:20 22° SSW
YAOGAN 6 3.3 21:53:41 51° NW 21:53:41 51° NW 21:56:37 10° NNW
Cosmos 1076 Rocket 4.3 21:53:37 10° N 21:56:45 43° NNE 21:56:45 43° NNE
FALCON 9 R/B 3.5 21:58:51 10° SW 22:01:58 30° S 22:01:58 30° S
Cosmos 1812 Rocket 4.4 22:03:03 27° SW 22:05:10 51° WNW 22:09:33 10° N
Cosmos 2084 4.4 22:03:52 10° WSW 22:07:40 40° NW 22:07:56 40° NNW
Cosmos 2278 4.0 22:02:15 10° NNW 22:07:33 53° NE 22:07:33 53° NE
Gblst 52 Del rocket 4.5 22:02:16 10° WNW 22:09:44 90° NNE 22:10:46 67° ESE
ATLAS 2AS CENTAUR R/B 3.3 22:03:41 10° NW 22:11:36 53° NE 22:13:10 47° ENE
Okean 3 Rocket 4.2 22:11:26 10° NNW 22:15:05 55° NW 22:15:05 55° NW
Cosmos 1727 Rocket 4.4 22:15:26 10° N 22:20:43 49° NE 22:20:43 49° NE
Cosmos 1295 Rocket 4.4 22:21:53 61° SSW 22:23:00 81° W 22:29:08 10° N
GEOS 3 Rocket 4.2 22:20:12 10° NNE 22:25:30 59° NW 22:30:46 10° WSW
Cosmos 2322 Rocket 4.3 22:22:43 10° N 22:25:24 14° NE 22:25:24 14° NE
Meteor 2-21 4.3 22:26:06 82° NE 22:26:06 82° NE 22:32:02 10° N
SL-8 Rocket 3.9 22:27:20 72° NE 22:27:20 72° NE 22:32:55 10° N
Cosmos 540 Rocket 4.5 22:23:27 10° SW 22:28:19 44° WNW 22:33:13 10° N
Cosmos 1980 Rocket 3.5 22:34:29 10° NNW 22:38:14 31° NNE 22:38:14 31° NNE
Cosmos 1697 Rocket 3.5 22:34:35 10° NNW 22:38:48 44° NNE 22:38:48 44° NNE
Meteor 2-15 Rocket 4.5 22:35:51 10° NNW 22:41:28 73° NW 22:41:28 73° NW
USA 267 3.9 22:43:05 43° NE 22:43:57 45° NNE 22:50:07 10° NW
Cosmos 1656 4.4 22:52:17 10° NNW 22:56:26 49° NW 22:56:26 49° NW
SL-16 R/B 4.1 22:56:23 10° N 22:59:17 20° NNE 22:59:17 20° NNE
H-2A R/B 3.4 23:03:33 34° NNW 23:03:33 34° NNW 23:06:25 10° NNW
Terra 4.0 23:11:31 21° N 23:11:31 21° N 23:13:05 10° N
BREEZE-M DEB (TANK) 4.3 23:17:15 10° WNW 23:26:25 49° WNW 23:26:25 49° WNW
